Regional Weather Roundup
Issued by NWS Portland, ME

Home | Current Version | Previous Version | Text Only | Print | Product List | Glossary On
Versions: 1 2 3 4 5 6 7 8 9 10 11 12 13 14 15 16 17 18 19 20 21 22 23 24 25 26 27 28 29 30 31 32 33 34 35 36 37 38 39 40 41 42 43 44 45 46 47 48 49 50
000
ASUS41 KGYX 272210
RWRGYX
WEATHER ROUNDUP FOR MAINE AND NEW HAMPSHIRE
NATIONAL WEATHER SERVICE GRAY ME
500 PM EST MON FEB 27 2017

MEZ002-005-006-010-012-015-018-020-021-024-026-027-029-272300-
MAINE

CITY           SKY/WX    TMP DP  RH WIND       PRES   REMARKS
PORTLAND       PTCLDY    47  20  34 W13       30.20R
SANFORD        PTCLDY    50  19  29 W14G23    30.21R
BAR HARBOR     CLOUDY    42  28  57 SW9       30.18R
WISCASSET      MOCLDY    47  25  42 VRB3      30.19R
ROCKLAND       PTCLDY    43  30  60 SW10      30.18R
FRYEBURG       CLOUDY    47  19  33 SW7G17    30.19R
LEWISTONAUBURN MOCLDY    47  20  34 W7        30.19R
AUGUSTA        CLOUDY    45  18  34 W5        30.17R
WATERVILLE     CLOUDY    45  21  38 W10       30.14R
BANGOR         MOCLDY    43  21  41 W3        30.15R
GREENVILLE       N/A     35  26  69 VRB5      30.08R
MILLINOCKET    MOCLDY    39  22  50 W14G28    30.13R
HOULTON        MOCLDY    39  22  50 W16G28    30.06R
PRESQUE ISLE   PTCLDY    37  19  48 W13G23    30.05R
FRENCHVILLE    CLOUDY    29  18  63 NW14      30.02R WCI  18
CARIBOU        PTCLDY    36  18  48 W12G25    30.02R
$$

NHZ002-005-008-009-011-012-014-272300-
NEW HAMPSHIRE

CITY           SKY/WX    TMP DP  RH WIND       PRES   REMARKS
PORTSMOUTH     PTCLDY    52  17  25 SW13G23   30.20R
ROCHESTER      CLEAR     50  16  25 MISG      30.20R
NASHUA         PTCLDY    51  18  27 W8G15     30.25R
MANCHESTER     PTCLDY    52  15  23 SW13G18   30.22R
CONCORD        PTCLDY    50  19  29 W9G22     30.22R
LACONIA        CLOUDY    48  20  32 W14G22    30.20R
PLYMOUTH       CLOUDY    46  22  38 W6        30.20R
BERLIN         MOCLDY    42  22  44 VRB7      30.14R
WHITEFIELD     CLOUDY    42  21  43 W6        30.16R
JAFFREY        CLEAR     48  17  29 SW10G21   30.23R
KEENE          CLEAR     49  20  31 VRB5      30.25R
LEBANON        CLOUDY    48  23  37 SW10      30.21R
MT WASHINGTON  FOG       16  16 100 W66         N/A  VSB 1/4 WCI -11
$$

VTZ005-007-008-272300-
VERMONT

CITY           SKY/WX    TMP DP  RH WIND       PRES   REMARKS
ST JOHNSBURY     N/A     44  22  41 MISG      30.17R
MONTPELIER     CLOUDY    43  23  45 W8G18     30.21R
BURLINGTON     MOCLDY    46  24  42 W12G18    30.20R
$$

MAZ007-012-024-CTZ003-RIZ002-NYZ038-NYZ072-272300-
SOUTHERN NEW ENGLAND AND NY

CITY           SKY/WX    TMP DP  RH WIND       PRES   REMARKS
BOSTON         PTCLDY    52  17  25 SW25G32   30.27R
WORCESTER      CLEAR     47  15  27 W18G28    30.26R
NANTUCKET      MOCLDY    43  34  70 SW20      30.39R
PROVIDENCE     PTCLDY    47  25  42 SW20G25   30.35R
HARTFORD       PTCLDY    52  17  25 SW13G23   30.30R
ALBANY         PTCLDY    52  19  27 SW13      30.27R
NEW YORK CITY  CLOUDY    52  33  48 VRB7      30.36R
$$

ANZ081-ANZ082-ANZ150-NHZ014-MEZ023>029-272300-
COASTAL MARINE OBSERVATIONS

STATION/POSITION TIME  TEMP    WIND        PRES    WAVE
                       AIR SEA DIR/SP/G            HT/PER
                 (UTC) (F)     (DEG/KT/KT) (MB)    (FT/S)
MOUNT DESERT ROC 2200   42                 1022.2R
MATINICUS ROCK   2100   43     220/ 26/ 28 1021.8F
ISLE OF SHOALS   2100   50     250/ 24/ 26 1022.7R
JEFFREYS LEDGE   2106      43                N/A     4/10
CASHES LEDGE BUO 2150   44 42              1023.3R   7/ 7
GEORGES BANK BUO 2050   44 44              1029.5    7/ 6
$$

.............KEY..............
   WCI - WIND CHILL
   TC  - TEMPERATURE IN CELSIUS
   VSB - VISIBILITY IN MILES
   HX  - HEAT INDEX
   FAIR- INDICATES FEW OR NO CLOUDS BELOW 12,000 FT, WITH NO
         SIGNIFICANT WEATHER AND/OR OBSTRUCTIONS TO VISIBILITY.





USA.gov is the U.S. government's official web portal to all federal, state and local government web resources and services.